King Salmon, AK

5:40 AM AKDT on September 25, 2016 (GMT -0800)
Port Heiden

Weather History for PAPH - December, 2013

Change the Weather History Date:

Friday, December 6, 2013

  Actual Average Record
Temperature  
Mean Temperature 48 °F -  
Max Temperature 51 °F 31 °F 51 °F (2013)
Min Temperature 44 °F 22 °F 0 °F (2001)
Degree Days  
Heating Degree Days 18    
Moisture  
Dew Point 39 °F    
Average Humidity 70    
Maximum Humidity 81    
Minimum Humidity 56    
Precipitation  
Precipitation 0.00 in - - ()
Sea Level Pressure  
Sea Level Pressure 30.10 in    
Wind  
Wind Speed 22 mph (SE)    
Max Wind Speed 36 mph    
Max Gust Speed 44 mph    
Visibility 10 miles    
Events      
Averages and records for this station are not official NWS values.
T = Trace of Precipitation, MM = Missing Value Source: NWS Daily Summary

Daily Weather History Graph

Daily Weather History Graph

Search for Another Location

Airport or City:

Trip Planner

Search our weather history database for the weather conditions in past years. The results will help you decide how hot, cold, wet, or windy it might be!

Date:

Astronomy

Dec. 06, 2013 Rise Set
Actual Time 9:56 AM AKST 4:55 PM AKST
Civil Twilight 9:07 AM AKST 5:43 PM AKST
Nautical Twilight 8:17 AM AKST 6:33 PM AKST
Astronomical Twilight 7:31 AM AKST 7:19 PM AKST
Moon 12:36 PM AKST (12/6) 10:18 PM AKST (12/6)
Length of Visible Light 8h 35m
Length of Day
6h 58m
Waxing Crescent, 20% of the Moon is Illuminated
Dec 6
Waxing Crescent
Dec 9
First Quarter
Dec 17
Full
Dec 25
Last Quarter
Jan 1
New

Hourly Weather History & Observations

Time (AKST) Temp. Windchill Dew Point Humidity Pressure Visibility Wind Dir Wind Speed Gust Speed Precip Events Conditions
12:16 AM 48.2 °F - 41.0 °F 76% 30.07 in 10.0 mi SE 21.9 mph 26.5 mph N/A   Scattered Clouds
12:36 AM 50.0 °F - 41.0 °F 71% 30.07 in 10.0 mi SE 18.4 mph - N/A   Mostly Cloudy
12:56 AM 50.0 °F - 41.0 °F 71% 30.07 in 10.0 mi SSE 20.7 mph 29.9 mph N/A   Scattered Clouds
1:16 AM 48.2 °F - 41.0 °F 76% 30.07 in 10.0 mi SSE 19.6 mph - N/A   Partly Cloudy
1:36 AM 48.2 °F - 41.0 °F 76% 30.07 in 10.0 mi SSE 23.0 mph 28.8 mph N/A   Scattered Clouds
1:56 AM 48.2 °F - 39.2 °F 71% 30.07 in 10.0 mi SSE 25.3 mph 31.1 mph N/A   Mostly Cloudy
2:16 AM 50.0 °F - 41.0 °F 71% 30.08 in 10.0 mi SE 26.5 mph 34.5 mph N/A   Overcast
2:36 AM 48.2 °F - 39.2 °F 71% 30.09 in 10.0 mi SE 13.8 mph - N/A   Overcast
2:56 AM 48.2 °F - 41.0 °F 76% 30.09 in 10.0 mi SE 11.5 mph - N/A   Overcast
3:16 AM 48.2 °F - 41.0 °F 76% 30.08 in 10.0 mi SE 15.0 mph - N/A   Overcast
3:36 AM 48.2 °F - 41.0 °F 76% 30.08 in 10.0 mi SE 25.3 mph 34.5 mph N/A   Overcast
3:56 AM 48.2 °F - 39.2 °F 71% 30.09 in 10.0 mi SE 18.4 mph - N/A   Overcast
4:16 AM 48.2 °F - 39.2 °F 71% 30.09 in 10.0 mi SE 19.6 mph 25.3 mph N/A   Overcast
4:36 AM 46.4 °F 39.2 °F 41.0 °F 81% 30.09 in 10.0 mi SE 18.4 mph 24.2 mph N/A   Overcast
4:56 AM 46.4 °F 39.2 °F 39.2 °F 76% 30.09 in 10.0 mi SE 18.4 mph - N/A   Overcast
5:16 AM 48.2 °F - 41.0 °F 76% 30.09 in 10.0 mi ESE 15.0 mph - N/A   Overcast
5:36 AM 48.2 °F - 41.0 °F 76% 30.10 in 10.0 mi SE 15.0 mph 20.7 mph N/A   Overcast
5:56 AM 48.2 °F - 41.0 °F 76% 30.09 in 10.0 mi ESE 16.1 mph - N/A   Overcast
6:16 AM 48.2 °F - 41.0 °F 76% 30.10 in 10.0 mi East 15.0 mph - N/A   Overcast
6:36 AM 50.0 °F - 42.8 °F 76% 30.09 in 10.0 mi East 21.9 mph 27.6 mph N/A   Overcast
6:56 AM 51.8 °F - 42.8 °F 71% 30.09 in 10.0 mi ESE 19.6 mph - N/A   Overcast
7:16 AM 51.8 °F - 42.8 °F 71% 30.09 in 10.0 mi ESE 19.6 mph 26.5 mph N/A   Overcast
7:36 AM 50.0 °F - 41.0 °F 71% 30.09 in 10.0 mi ESE 24.2 mph 29.9 mph N/A   Overcast
7:56 AM 50.0 °F - 41.0 °F 71% 30.09 in 10.0 mi ESE 20.7 mph 27.6 mph N/A   Overcast
8:16 AM 50.0 °F - 39.2 °F 66% 30.10 in 10.0 mi ESE 27.6 mph 31.1 mph N/A   Overcast
8:36 AM 50.0 °F - 41.0 °F 71% 30.10 in 10.0 mi ESE 25.3 mph 29.9 mph N/A   Overcast
8:56 AM 50.0 °F - 39.2 °F 66% 30.09 in 10.0 mi ESE 26.5 mph 32.2 mph N/A   Mostly Cloudy
9:16 AM 50.0 °F - 39.2 °F 66% 30.09 in 10.0 mi SE 28.8 mph 33.4 mph N/A   Mostly Cloudy
9:36 AM - - - N/A% 30.09 in 10.0 mi SE 28.8 mph 34.5 mph N/A   Overcast
9:56 AM 50.0 °F - 39.2 °F 66% 30.09 in 10.0 mi SE 31.1 mph - N/A   Mostly Cloudy
10:16 AM 48.2 °F - 39.2 °F 71% 30.12 in 10.0 mi SE 23.0 mph 32.2 mph N/A   Overcast
10:36 AM 48.2 °F - 39.2 °F 71% 30.13 in 10.0 mi ESE 17.3 mph 24.2 mph N/A   Overcast
10:56 AM 48.2 °F - 39.2 °F 71% 30.13 in 10.0 mi SE 21.9 mph 29.9 mph N/A   Overcast
11:16 AM 48.2 °F - 39.2 °F 71% 30.13 in 10.0 mi ESE 19.6 mph 28.8 mph N/A   Overcast
11:36 AM 48.2 °F - 39.2 °F 71% 30.14 in 10.0 mi ESE 18.4 mph 29.9 mph N/A   Overcast
11:56 AM 48.2 °F - 39.2 °F 71% 30.15 in 10.0 mi ESE 20.7 mph 26.5 mph N/A   Overcast
12:16 PM 48.2 °F - 41.0 °F 76% 30.15 in 10.0 mi ESE 17.3 mph 20.7 mph N/A   Overcast
12:36 PM 48.2 °F - 41.0 °F 76% 30.14 in 10.0 mi ESE 18.4 mph 25.3 mph N/A   Overcast
12:56 PM 50.0 °F - 41.0 °F 71% 30.14 in 10.0 mi SE 21.9 mph 27.6 mph N/A   Overcast
1:16 PM 51.8 °F - 41.0 °F 67% 30.12 in 10.0 mi ESE 24.2 mph 29.9 mph N/A   Scattered Clouds
1:36 PM 51.8 °F - 41.0 °F 67% 30.11 in 10.0 mi SE 25.3 mph 33.4 mph N/A   Clear
1:56 PM - - - N/A% 30.10 in 10.0 mi SE 31.1 mph 41.4 mph N/A   Clear
2:16 PM - - - N/A% 30.10 in 10.0 mi SE 26.5 mph 36.8 mph N/A   Clear
2:36 PM 51.8 °F - 41.0 °F 67% 30.10 in 10.0 mi SE 32.2 mph 41.4 mph N/A   Clear
2:56 PM - - - N/A% 30.09 in 10.0 mi SE 35.7 mph 43.7 mph N/A   Clear
3:16 PM 51.8 °F - 41.0 °F 67% 30.09 in 10.0 mi SE 35.7 mph 41.4 mph N/A   Clear
3:36 PM - - - N/A% 30.10 in 10.0 mi SE 32.2 mph 43.7 mph N/A   Clear
3:56 PM - - - N/A% 30.13 in 10.0 mi SE 26.5 mph 35.7 mph N/A   Mostly Cloudy
4:16 PM 50.0 °F - 39.2 °F 66% 30.14 in 10.0 mi SE 24.2 mph 32.2 mph N/A   Overcast
4:36 PM 48.2 °F - 39.2 °F 71% 30.13 in 10.0 mi ESE 23.0 mph - N/A   Overcast
4:56 PM 46.4 °F 39.0 °F 39.2 °F 76% 30.12 in 10.0 mi SE 19.6 mph - N/A   Mostly Cloudy
5:16 PM 46.4 °F 38.5 °F 39.2 °F 76% 30.12 in 10.0 mi SE 21.9 mph - N/A   Partly Cloudy
5:36 PM 46.4 °F 38.5 °F 37.4 °F 71% 30.12 in 10.0 mi SE 21.9 mph 25.3 mph N/A   Mostly Cloudy
5:56 PM 46.4 °F 39.5 °F 39.2 °F 76% 30.13 in 10.0 mi SE 17.3 mph - N/A   Mostly Cloudy
6:16 PM 46.4 °F 39.0 °F 37.4 °F 71% 30.13 in 10.0 mi SE 19.6 mph 26.5 mph N/A   Scattered Clouds
6:36 PM 46.4 °F 39.0 °F 35.6 °F 66% 30.12 in 10.0 mi SE 19.6 mph - N/A   Clear
6:56 PM 46.4 °F 38.7 °F 35.6 °F 66% 30.11 in 10.0 mi ESE 20.7 mph 28.8 mph N/A   Clear
7:16 PM - - - N/A% 30.10 in 10.0 mi SE 23.0 mph 36.8 mph N/A   Clear
7:36 PM 46.4 °F 38.3 °F 35.6 °F 66% 30.10 in 10.0 mi SE 23.0 mph - N/A   Clear
7:56 PM 46.4 °F 38.5 °F 35.6 °F 66% 30.10 in 10.0 mi SE 21.9 mph 31.1 mph N/A   Clear
8:16 PM 46.4 °F 37.7 °F 35.6 °F 66% 30.10 in 10.0 mi SE 26.5 mph 33.4 mph N/A   Clear
8:36 PM 46.4 °F 37.5 °F 35.6 °F 66% 30.09 in 10.0 mi SE 27.6 mph 35.7 mph N/A   Clear
8:56 PM 46.4 °F 37.4 °F 35.6 °F 66% 30.10 in 10.0 mi SE 28.8 mph 39.1 mph N/A   Clear
9:16 PM - - - N/A% 30.09 in 10.0 mi SE 29.9 mph 40.3 mph N/A   Clear
9:36 PM 46.4 °F 37.9 °F 35.6 °F 66% 30.10 in 10.0 mi SE 25.3 mph 39.1 mph N/A   Clear
9:56 PM 46.4 °F 37.5 °F 33.8 °F 62% 30.11 in 10.0 mi SSE 27.6 mph 35.7 mph N/A   Clear
10:16 PM 46.4 °F 37.5 °F 33.8 °F 62% 30.10 in 10.0 mi SSE 27.6 mph 36.8 mph N/A   Clear
10:36 PM - - - N/A% 30.08 in 10.0 mi SE 32.2 mph 40.3 mph N/A   Clear
10:56 PM 46.4 °F 36.9 °F 33.8 °F 62% 30.09 in 10.0 mi SE 32.2 mph 40.3 mph N/A   Clear
11:16 PM 46.4 °F 37.2 °F 33.8 °F 62% 30.10 in 10.0 mi SSE 29.9 mph 39.1 mph N/A   Clear
11:36 PM 44.6 °F 34.9 °F 33.8 °F 66% 30.10 in 10.0 mi SSE 28.8 mph 39.1 mph N/A   Clear
11:56 PM 44.6 °F 34.7 °F 32.0 °F 61% 30.11 in 10.0 mi SSE 29.9 mph 36.8 mph N/A   Clear